Skip Page Navigation
NASA JPL Caltech
NASA Logo - Jet Propulsion Laboratory + View the NASA Portal
+ Center for Near-Earth Object Studies
JPL Home Earth Solar System Stars & Galaxies Technology
JPL Solar System Dynamics
BODIES ORBITS EPHEMERIDES TOOLS PHYSICAL DATA DISCOVERY FAQ SITE MAP
JPL Small-Body Database Browser
Search: [ help ]  
351041 (2003 SU193)
Classification: Main-belt Asteroid          SPK-ID: 2351041
Ephemeris | Orbit Diagram | Orbital Elements | Mission Design | Physical Parameters | Discovery Circumstances ]

[ show orbit diagram ]
Orbital Elements at Epoch 2459000.5 (2020-May-31.0) TDB
Reference: JPL 4 (heliocentric ecliptic J2000)
 Element Value Uncertainty (1-sigma)   Units 
e .1844532296980766 1.4908e-07  
a 2.566033839349351 3.9461e-08 au
q 2.092720610166808 4.0631e-07 au
i 7.574798439051277 1.7438e-05 deg
node 266.4081558600763 9.0881e-05 deg
peri 97.98625163356851 0.00011862 deg
M 16.84963513552456 8.8073e-05 deg
tp 2458930.228375070866
(2020-Mar-21.72837507)
0.00036604 TDB
period 1501.384734506936
4.11
3.4633e-05
9.482e-08
d
yr
n .2397786468224789 5.531e-09 deg/d
Q 3.039347068531894 4.6739e-08 au
  Orbit Determination Parameters
   # obs. used (total)      68  
   data-arc span      5789 days (15.85 yr)  
   first obs. used      2001-02-20  
   last obs. used      2016-12-27  
   planetary ephem.      DE431  
   SB-pert. ephem.      SB431-N16  
   condition code      0  
   norm. resid. RMS      .59349  
   source      ORB  
   producer      Otto Matic  
   solution date      2017-Apr-10 07:40:00  

Additional Information
 Earth MOID = 1.10719 au 
 Jupiter MOID = 2.49828 au 
 T_jup = 3.396 
[ hide covariance matrix ]
Orbital Elements at Epoch 2456330.5 (2013-Feb-07.0) TDB
Reference: JPL 4 (heliocentric ecliptic J2000)
 Element Value Uncertainty (1-sigma)   Units 
e .1869010658519064 1.4712e-07  
q 2.085954037530219 4.0173e-07 au
tp 2455928.593771453760
(2012-Jan-02.09377145)
0.00030556 TDB
node 266.4815913493681 9.1028e-05 deg
peri 98.09478769817156 0.00011774 deg
i 7.568776747337706 1.7417e-05 deg
  Orbit Determination Parameters
   # obs. used (total)      68  
   data-arc span      5789 days (15.85 yr)  
   first obs. used      2001-02-20  
   last obs. used      2016-12-27  
   planetary ephem.      DE431  
   SB-pert. ephem.      SB431-N16  
   condition code      0  
   norm. resid. RMS      .59349  
   source      ORB  
   producer      Otto Matic  
   solution date      2017-Apr-10 07:40:00  

Additional Information
 Jupiter MOID = 2.49828 au 
 T_jup = 3.396 
Orbit Covariance (6×6)
  e q tp node peri i
e 2.164481009727227E-14 -5.901310205560473E-14 -3.931927676150996E-11 -7.881640585426827E-13 -9.405130535399947E-12 -2.340833901152217E-13
q -5.901310205560473E-14 1.613906101479126E-13 1.077460706153398E-10 2.149565579989117E-12 2.582456273190965E-11 6.392606432735088E-13
tp -3.931927676150996E-11 1.077460706153398E-10 9.336436025150504E-8 1.599537083116125E-9 2.304228165734999E-8 4.793722649368215E-10
node -7.881640585426827E-13 2.149565579989117E-12 1.599537083116125E-9 8.286081220653282E-9 -7.797367401654809E-9 1.230439622547624E-9
peri -9.405130535399947E-12 2.582456273190965E-11 2.304228165734999E-8 -7.797367401654809E-9 1.38616607604551E-8 -1.094880031851256E-9
i -2.340833901152217E-13 6.392606432735088E-13 4.793722649368215E-10 1.230439622547624E-9 -1.094880031851256E-9 3.033412026554281E-10

Ephemeris | Orbit Diagram | Orbital Elements | Mission Design | Physical Parameters | Discovery Circumstances ]

Physical Parameter Table
Parameter Symbol Value Units Sigma Reference Notes
absolute magnitude H 17.3   n/a MPO342060  

351041 (2003 SU193)          Discovered 2003-Sep-20 by Spacewatch at Kitt Peak
Reference: 20130127/Numbers.arcLast Updated: 2013-01-31
Ephemeris | Orbit Diagram | Orbital Elements | Mission Design | Physical Parameters | Discovery Circumstances ]
ABOUT SSD CREDITS/AWARDS PRIVACY/COPYRIGHT GLOSSARY LINKS
FirstGov 2020-Aug-11 22:22 UT
(server date/time)  
NASA Home Page
Site Manager:   Ryan S. Park
Webmaster  Alan B. Chamberlin